QPF
0.00 0.00 0.00 0.00 0.00 0.00 0.00 0.00 0.00 0.00 0.00 0.00 0.00 0.00 0.00 0.00 0.00 0.00 0.00 0.00 0.00 0.00 0.00 0.00 0.00 0.00 0.01 0.01 0.01 0.01 0.01 0.01 0.02 0.02 0.03 0.03 0.03 0.02 0.02 0.03 0.05 0.05 0.04 0.04 0.05 0.06 0.05 0.03 0.03
0.00 0.00 0.00 0.00 0.00 0.00 0.00 0.00 0.00 0.00 0.00 0.00 0.00 0.00 0.00 0.00 0.00 0.00 0.00 0.00 0.00 0.00 0.00 0.00 0.00 0.00 0.00 0.01 0.01 0.01 0.01 0.01 0.02 0.02 0.03 0.04 0.03 0.02 0.03 0.03 0.03 0.05 0.06 0.07 0.07 0.07 0.05 0.04 0.03
0.00 0.00 0.00 0.00 0.00 0.00 0.00 0.00 0.00 0.00 0.00 0.00 0.00 0.00 0.00 0.00 0.00 0.00 0.00 0.00 0.00 0.00 0.00 0.00 0.00 0.00 0.00 0.01 0.01 0.01 0.01 0.01 0.01 0.01 0.02 0.03 0.04 0.03 0.04 0.04 0.03 0.04 0.05 0.06 0.07 0.08 0.06 0.05 0.03
0.00 0.00 0.00 0.00 0.00 0.00 0.00 0.00 0.00 0.00 0.00 0.00 0.00 0.00 0.00 0.00 0.00 0.00 0.00 0.00 0.00 0.00 0.00 0.00 0.00 0.00 0.00 0.01 0.01 0.00 0.01 0.01 0.01 0.01 0.02 0.02 0.03 0.03 0.04 0.04 0.04 0.03 0.04 0.06 0.07 0.07 0.06 0.04 0.03
0.00 0.00 0.00 0.00 0.00 0.00 0.00 0.00 0.00 0.00 0.00 0.00 0.00 0.00 0.00 0.00 0.00 0.00 0.00 0.00 0.00 0.00 0.00 0.00 0.00 0.00 0.00 0.00 0.00 0.00 0.00 0.01 0.01 0.01 0.01 0.02 0.04 0.06 0.04 0.04 0.03 0.03 0.04 0.05 0.07 0.08 0.07 0.05 0.04
0.00 0.00 0.00 0.00 0.00 0.00 0.00 0.00 0.00 0.00 0.00 0.00 0.00 0.00 0.00 0.00 0.00 0.00 0.00 0.00 0.00 0.00 0.00 0.00 0.00 0.01 0.00 0.00 0.00 0.00 0.00 0.01 0.01 0.01 0.02 0.02 0.03 0.05 0.05 0.06 0.05 0.04 0.04 0.04 0.05 0.07 0.07 0.07 0.05
0.00 0.00 0.00 0.00 0.00 0.00 0.00 0.00 0.00 0.00 0.00 0.00 0.00 0.00 0.00 0.00 0.00 0.00 0.00 0.00 0.00 0.00 0.00 0.00 0.00 0.01 0.01 0.00 0.00 0.00 0.01 0.01 0.02 0.02 0.02 0.02 0.02 0.03 0.04 0.05 0.04 0.03 0.03 0.03 0.03 0.05 0.06 0.05 0.05
0.00 0.00 0.00 0.00 0.00 0.00 0.00 0.00 0.00 0.00 0.00 0.00 0.00 0.00 0.00 0.00 0.00 0.00 0.00 0.00 0.00 0.00 0.00 0.00 0.01 0.01 0.01 0.01 0.01 0.01 0.01 0.01 0.02 0.02 0.02 0.02 0.02 0.02 0.03 0.03 0.03 0.03 0.03 0.02 0.02 0.03 0.04 0.04 0.05
0.00 0.00 0.00 0.00 0.00 0.00 0.00 0.00 0.00 0.00 0.00 0.00 0.00 0.00 0.00 0.00 0.00 0.00 0.00 0.00 0.00 0.00 0.00 0.01 0.02 0.02 0.03 0.03 0.02 0.01 0.01 0.01 0.02 0.02 0.01 0.02 0.02 0.02 0.02 0.03 0.04 0.04 0.04 0.04 0.04 0.04 0.04 0.04 0.04
0.00 0.00 0.00 0.00 0.00 0.00 0.00 0.00 0.00 0.00 0.00 0.00 0.00 0.00 0.00 0.00 0.00 0.00 0.00 0.00 0.00 0.00 0.00 0.00 0.01 0.02 0.03 0.04 0.04 0.04 0.02 0.01 0.01 0.01 0.01 0.01 0.02 0.02 0.02 0.02 0.03 0.04 0.05 0.06 0.06 0.05 0.04 0.04 0.03
0.00 0.00 0.00 0.00 0.00 0.00 0.00 0.00 0.00 0.00 0.00 0.00 0.00 0.00 0.00 0.00 0.00 0.00 0.00 0.00 0.00 0.00 0.00 0.00 0.00 0.01 0.03 0.04 0.05 0.05 0.05 0.03 0.01 0.00 0.00 0.01 0.01 0.02 0.02 0.01 0.01 0.02 0.03 0.03 0.04 0.05 0.04 0.03 0.03
0.00 0.00 0.00 0.00 0.00 0.00 0.00 0.00 0.00 0.00 0.00 0.00 0.00 0.00 0.00 0.00 0.00 0.00 0.00 0.00 0.00 0.00 0.00 0.00 0.00 0.01 0.02 0.04 0.05 0.05 0.05 0.04 0.02 0.01 0.00 0.01 0.01 0.02 0.02 0.02 0.01 0.01 0.02 0.03 0.03 0.03 0.03 0.04 0.03
0.00 0.00 0.00 0.00 0.00 0.00 0.00 0.00 0.00 0.00 0.00 0.00 0.00 0.00 0.00 0.00 0.00 0.00 0.00 0.00 0.00 0.00 0.00 0.00 0.00 0.00 0.01 0.03 0.05 0.06 0.05 0.04 0.04 0.02 0.01 0.01 0.01 0.01 0.01 0.02 0.01 0.01 0.02 0.03 0.04 0.04 0.04 0.04 0.04
0.00 0.00 0.00 0.00 0.00 0.00 0.00 0.00 0.00 0.00 0.00 0.00 0.00 0.00 0.00 0.00 0.00 0.00 0.00 0.00 0.00 0.00 0.00 0.00 0.00 0.00 0.01 0.02 0.03 0.06 0.06 0.05 0.04 0.03 0.02 0.01 0.02 0.03 0.02 0.02 0.02 0.01 0.01 0.03 0.05 0.05 0.05 0.05 0.06
0.00 0.00 0.00 0.00 0.00 0.00 0.00 0.00 0.00 0.00 0.00 0.00 0.00 0.00 0.00 0.00 0.00 0.00 0.00 0.00 0.00 0.00 0.00 0.00 0.00 0.00 0.01 0.02 0.02 0.03 0.06 0.08 0.07 0.04 0.03 0.01 0.02 0.04 0.05 0.05 0.04 0.02 0.01 0.03 0.04 0.05 0.05 0.05 0.05
0.00 0.00 0.00 0.00 0.00 0.00 0.00 0.00 0.00 0.00 0.00 0.00 0.00 0.00 0.00 0.00 0.00 0.00 0.00 0.00 0.00 0.00 0.00 0.00 0.00 0.00 0.01 0.02 0.02 0.03 0.04 0.08 0.09 0.07 0.05 0.03 0.02 0.03 0.05 0.06 0.05 0.05 0.03 0.03 0.04 0.04 0.04 0.04 0.04
0.00 0.00 0.00 0.00 0.00 0.00 0.00 0.00 0.00 0.00 0.00 0.00 0.00 0.00 0.00 0.00 0.00 0.00 0.00 0.00 0.00 0.00 0.00 0.00 0.00 0.00 0.00 0.02 0.03 0.03 0.04 0.06 0.08 0.08 0.06 0.03 0.02 0.03 0.04 0.05 0.05 0.05 0.05 0.05 0.05 0.04 0.04 0.03 0.03
0.00 0.00 0.00 0.00 0.00 0.00 0.00 0.00 0.00 0.00 0.00 0.00 0.00 0.00 0.00 0.00 0.00 0.00 0.00 0.00 0.00 0.00 0.00 0.00 0.00 0.00 0.00 0.01 0.02 0.02 0.03 0.05 0.06 0.05 0.04 0.04 0.03 0.03 0.04 0.05 0.04 0.04 0.04 0.05 0.05 0.05 0.04 0.03 0.03
0.00 0.00 0.00 0.00 0.00 0.00 0.00 0.00 0.00 0.00 0.00 0.00 0.00 0.00 0.00 0.00 0.00 0.00 0.00 0.00 0.00 0.00 0.00 0.00 0.00 0.00 0.00 0.01 0.01 0.02 0.02 0.03 0.04 0.02 0.02 0.03 0.05 0.05 0.04 0.05 0.05 0.04 0.03 0.03 0.03 0.04 0.05 0.04 0.03
0.00 0.00 0.00 0.00 0.00 0.00 0.00 0.00 0.00 0.00 0.00 0.00 0.00 0.00 0.00 0.00 0.00 0.00 0.00 0.00 0.00 0.00 0.00 0.00 0.00 0.00 0.00 0.01 0.01 0.02 0.02 0.03 0.03 0.02 0.01 0.02 0.03 0.06 0.07 0.06 0.05 0.04 0.03 0.03 0.03 0.03 0.03 0.04 0.05
0.00 0.00 0.00 0.00 0.00 0.00 0.00 0.00 0.00 0.00 0.00 0.00 0.00 0.00 0.00 0.00 0.00 0.00 0.00 0.00 0.00 0.00 0.00 0.00 0.00 0.00 0.00 0.01 0.02 0.02 0.03 0.03 0.03 0.02 0.02 0.01 0.02 0.03 0.06 0.07 0.05 0.05 0.04 0.03 0.03 0.04 0.04 0.04 0.05
0.00 0.00 0.00 0.00 0.00 0.00 0.00 0.00 0.00 0.00 0.00 0.00 0.00 0.00 0.00 0.00 0.00 0.00 0.00 0.00 0.00 0.00 0.00 0.00 0.00 0.00 0.00 0.01 0.01 0.02 0.03 0.03 0.02 0.02 0.01 0.01 0.02 0.02 0.03 0.05 0.07 0.05 0.04 0.03 0.02 0.03 0.05 0.05 0.05
0.00 0.00 0.00 0.00 0.00 0.00 0.00 0.00 0.00 0.00 0.00 0.01 0.00 0.00 0.00 0.00 0.00 0.00 0.00 0.00 0.00 0.00 0.00 0.00 0.00 0.00 0.00 0.01 0.01 0.01 0.02 0.02 0.03 0.03 0.02 0.02 0.02 0.01 0.02 0.03 0.04 0.05 0.04 0.03 0.03 0.03 0.05 0.06 0.05
0.00 0.00 0.00 0.00 0.00 0.00 0.00 0.00 0.00 0.00 0.00 0.01 0.01 0.01 0.01 0.01 0.00 0.00 0.00 0.00 0.00 0.00 0.00 0.00 0.00 0.00 0.01 0.01 0.01 0.02 0.02 0.02 0.03 0.03 0.02 0.02 0.02 0.02 0.01 0.02 0.03 0.04 0.04 0.03 0.03 0.03 0.03 0.05 0.05
0.00 0.00 0.00 0.00 0.00 0.00 0.00 0.00 0.00 0.00 0.00 0.01 0.01 0.01 0.01 0.02 0.02 0.01 0.00 0.00 0.00 0.00 0.00 0.00 0.00 0.01 0.01 0.02 0.01 0.01 0.02 0.02 0.03 0.03 0.02 0.02 0.02 0.02 0.01 0.02 0.03 0.03 0.04 0.04 0.03 0.03 0.03 0.03 0.05
0.00 0.00 0.00 0.00 0.00 0.00 0.00 0.00 0.00 0.00 0.00 0.01 0.01 0.01 0.00 0.01 0.01 0.02 0.01 0.01 0.01 0.01 0.01 0.01 0.01 0.01 0.02 0.02 0.02 0.01 0.02 0.02 0.03 0.03 0.02 0.02 0.02 0.02 0.02 0.02 0.02 0.03 0.04 0.04 0.04 0.03 0.03 0.03 0.03
0.00 0.00 0.00 0.00 0.00 0.00 0.00 0.00 0.00 0.00 0.00 0.00 0.01 0.01 0.01 0.01 0.01 0.02 0.02 0.01 0.01 0.02 0.01 0.02 0.02 0.02 0.03 0.02 0.03 0.03 0.02 0.03 0.03 0.04 0.04 0.03 0.02 0.02 0.02 0.02 0.02 0.03 0.04 0.04 0.05 0.04 0.03 0.03 0.03
0.00 0.00 0.00 0.00 0.00 0.00 0.00 0.00 0.00 0.00 0.00 0.00 0.00 0.00 0.01 0.02 0.02 0.02 0.02 0.02 0.02 0.02 0.02 0.02 0.02 0.02 0.03 0.04 0.04 0.04 0.04 0.03 0.04 0.04 0.05 0.04 0.03 0.03 0.03 0.02 0.03 0.03 0.03 0.04 0.04 0.05 0.04 0.03 0.03
0.00 0.00 0.00 0.00 0.00 0.00 0.00 0.00 0.00 0.00 0.00 0.00 0.00 0.00 0.00 0.00 0.00 0.01 0.02 0.01 0.02 0.01 0.01 0.03 0.02 0.02 0.03 0.03 0.04 0.04 0.05 0.04 0.05 0.05 0.05 0.05 0.04 0.04 0.04 0.04 0.04 0.03 0.03 0.03 0.04 0.04 0.05 0.05 0.04
0.00 0.00 0.00 0.00 0.00 0.00 0.00 0.00 0.00 0.00 0.00 0.00 0.00 0.00 0.00 0.00 0.00 0.00 0.00 0.01 0.01 0.01 0.02 0.04 0.02 0.01 0.01 0.02 0.03 0.03 0.03 0.03 0.03 0.04 0.04 0.05 0.05 0.06 0.05 0.05 0.05 0.03 0.03 0.03 0.04 0.05 0.05 0.05 0.05
MSLP
1011.16 1011.91 1012.73 1013.49 1014.04 1014.26 1014.13 1013.67 1013.01 1012.29 1011.68 1011.31 1011.25 1011.48 1011.94 1012.49 1013.00 1013.36 1013.51 1013.45 1013.25 1012.99 1012.77 1012.66 1012.69 1012.83 1013.03 1013.22 1013.35 1013.37 1013.29 1013.14 1012.97 1012.84 1012.76 1012.76 1012.79 1012.83 1012.83 1012.76 1012.59 1012.35 1012.06 1011.76 1011.46 1011.21 1010.99 1010.81 1010.66
1011.50 1012.30 1013.10 1013.77 1014.15 1014.19 1013.85 1013.22 1012.43 1011.64 1011.01 1010.68 1010.67 1010.98 1011.49 1012.08 1012.62 1013.00 1013.18 1013.17 1013.03 1012.86 1012.73 1012.72 1012.83 1013.04 1013.28 1013.50 1013.64 1013.68 1013.61 1013.48 1013.34 1013.23 1013.17 1013.16 1013.17 1013.18 1013.13 1013.01 1012.81 1012.54 1012.24 1011.93 1011.64 1011.37 1011.14 1010.92 1010.71
1011.88 1012.68 1013.41 1013.93 1014.13 1013.96 1013.45 1012.68 1011.81 1011.01 1010.43 1010.17 1010.26 1010.65 1011.22 1011.85 1012.40 1012.78 1012.96 1012.96 1012.87 1012.76 1012.72 1012.79 1012.97 1013.24 1013.53 1013.77 1013.93 1013.97 1013.93 1013.82 1013.70 1013.60 1013.54 1013.51 1013.49 1013.45 1013.35 1013.18 1012.95 1012.67 1012.38 1012.09 1011.82 1011.57 1011.33 1011.08 1010.81
1012.28 1013.03 1013.64 1014.00 1014.00 1013.65 1012.98 1012.13 1011.24 1010.48 1010.00 1009.86 1010.07 1010.54 1011.17 1011.81 1012.35 1012.71 1012.87 1012.89 1012.82 1012.77 1012.79 1012.92 1013.16 1013.47 1013.78 1014.04 1014.20 1014.25 1014.22 1014.13 1014.02 1013.93 1013.87 1013.82 1013.76 1013.66 1013.52 1013.31 1013.05 1012.78 1012.51 1012.26 1012.03 1011.80 1011.56 1011.29 1010.97
1012.63 1013.30 1013.77 1013.96 1013.79 1013.29 1012.53 1011.64 1010.78 1010.13 1009.78 1009.77 1010.09 1010.65 1011.31 1011.95 1012.47 1012.79 1012.94 1012.95 1012.91 1012.90 1012.97 1013.15 1013.43 1013.75 1014.06 1014.31 1014.45 1014.50 1014.47 1014.39 1014.30 1014.22 1014.16 1014.09 1014.01 1013.87 1013.69 1013.45 1013.18 1012.92 1012.68 1012.47 1012.28 1012.08 1011.84 1011.55 1011.18
1012.88 1013.45 1013.79 1013.82 1013.52 1012.92 1012.12 1011.26 1010.49 1009.97 1009.76 1009.89 1010.31 1010.92 1011.60 1012.22 1012.70 1012.99 1013.11 1013.13 1013.12 1013.15 1013.26 1013.48 1013.77 1014.09 1014.37 1014.58 1014.70 1014.72 1014.68 1014.61 1014.54 1014.48 1014.44 1014.38 1014.28 1014.12 1013.91 1013.65 1013.38 1013.13 1012.91 1012.73 1012.57 1012.39 1012.16 1011.84 1011.43
1013.00 1013.46 1013.69 1013.60 1013.21 1012.58 1011.80 1011.01 1010.36 1009.97 1009.90 1010.14 1010.63 1011.26 1011.93 1012.51 1012.94 1013.20 1013.32 1013.35 1013.38 1013.46 1013.62 1013.86 1014.16 1014.45 1014.69 1014.85 1014.92 1014.91 1014.87 1014.81 1014.77 1014.75 1014.73 1014.70 1014.61 1014.45 1014.23 1013.96 1013.68 1013.43 1013.22 1013.05 1012.90 1012.74 1012.50 1012.17 1011.72
1012.97 1013.34 1013.47 1013.31 1012.89 1012.27 1011.55 1010.88 1010.36 1010.10 1010.14 1010.45 1010.96 1011.58 1012.20 1012.72 1013.10 1013.34 1013.46 1013.53 1013.62 1013.76 1013.97 1014.24 1014.53 1014.79 1014.99 1015.09 1015.11 1015.08 1015.03 1014.99 1015.00 1015.03 1015.07 1015.07 1015.01 1014.87 1014.65 1014.37 1014.08 1013.81 1013.58 1013.41 1013.26 1013.08 1012.84 1012.49 1012.03
1012.82 1013.12 1013.18 1012.99 1012.58 1012.01 1011.39 1010.83 1010.44 1010.29 1010.40 1010.74 1011.24 1011.80 1012.34 1012.79 1013.12 1013.33 1013.48 1013.60 1013.75 1013.96 1014.24 1014.54 1014.83 1015.07 1015.22 1015.28 1015.27 1015.22 1015.17 1015.17 1015.23 1015.32 1015.42 1015.48 1015.47 1015.35 1015.13 1014.85 1014.53 1014.24 1013.99 1013.78 1013.61 1013.42 1013.17 1012.82 1012.35
1012.61 1012.84 1012.87 1012.68 1012.30 1011.82 1011.30 1010.86 1010.58 1010.50 1010.64 1010.96 1011.40 1011.87 1012.31 1012.68 1012.96 1013.16 1013.33 1013.51 1013.74 1014.03 1014.37 1014.71 1015.02 1015.25 1015.38 1015.41 1015.38 1015.33 1015.31 1015.35 1015.46 1015.62 1015.78 1015.90 1015.93 1015.84 1015.64 1015.34 1015.01 1014.68 1014.40 1014.16 1013.95 1013.73 1013.47 1013.12 1012.66
1012.39 1012.58 1012.59 1012.42 1012.10 1011.70 1011.29 1010.95 1010.74 1010.70 1010.83 1011.10 1011.44 1011.81 1012.15 1012.44 1012.66 1012.86 1013.06 1013.29 1013.59 1013.96 1014.35 1014.74 1015.08 1015.31 1015.44 1015.48 1015.46 1015.43 1015.43 1015.52 1015.68 1015.89 1016.11 1016.28 1016.34 1016.28 1016.10 1015.80 1015.46 1015.11 1014.78 1014.50 1014.26 1014.02 1013.75 1013.40 1012.97
1012.22 1012.38 1012.39 1012.25 1011.99 1011.67 1011.35 1011.08 1010.92 1010.89 1010.98 1011.17 1011.42 1011.67 1011.92 1012.12 1012.31 1012.49 1012.71 1013.00 1013.35 1013.77 1014.22 1014.65 1015.01 1015.28 1015.43 1015.49 1015.50 1015.50 1015.55 1015.67 1015.87 1016.11 1016.36 1016.56 1016.66 1016.63 1016.46 1016.18 1015.84 1015.48 1015.13 1014.82 1014.55 1014.29 1014.00 1013.66 1013.25
1012.14 1012.28 1012.29 1012.18 1011.98 1011.73 1011.47 1011.25 1011.11 1011.06 1011.10 1011.21 1011.36 1011.53 1011.69 1011.83 1011.98 1012.16 1012.39 1012.70 1013.09 1013.54 1014.01 1014.48 1014.87 1015.17 1015.37 1015.48 1015.53 1015.58 1015.66 1015.80 1016.01 1016.26 1016.51 1016.72 1016.83 1016.82 1016.69 1016.44 1016.13 1015.78 1015.44 1015.12 1014.83 1014.54 1014.24 1013.90 1013.50
1012.16 1012.28 1012.29 1012.21 1012.06 1011.85 1011.64 1011.44 1011.30 1011.22 1011.21 1011.25 1011.33 1011.43 1011.54 1011.65 1011.78 1011.95 1012.18 1012.49 1012.88 1013.33 1013.81 1014.28 1014.70 1015.04 1015.29 1015.45 1015.56 1015.65 1015.75 1015.90 1016.09 1016.32 1016.55 1016.74 1016.85 1016.87 1016.77 1016.58 1016.32 1016.02 1015.71 1015.40 1015.10 1014.80 1014.49 1014.14 1013.74
1012.24 1012.34 1012.37 1012.31 1012.19 1012.02 1011.82 1011.63 1011.47 1011.36 1011.30 1011.30 1011.34 1011.41 1011.50 1011.61 1011.75 1011.91 1012.14 1012.42 1012.78 1013.20 1013.65 1014.11 1014.54 1014.91 1015.21 1015.43 1015.59 1015.72 1015.84 1015.97 1016.13 1016.30 1016.48 1016.63 1016.73 1016.76 1016.72 1016.60 1016.41 1016.19 1015.93 1015.66 1015.38 1015.08 1014.75 1014.38 1013.97
1012.34 1012.44 1012.48 1012.44 1012.35 1012.19 1012.00 1011.80 1011.61 1011.47 1011.37 1011.34 1011.38 1011.45 1011.57 1011.70 1011.86 1012.04 1012.25 1012.50 1012.81 1013.17 1013.57 1013.99 1014.42 1014.81 1015.15 1015.42 1015.63 1015.79 1015.91 1016.01 1016.11 1016.21 1016.32 1016.42 1016.50 1016.55 1016.56 1016.52 1016.43 1016.30 1016.13 1015.91 1015.66 1015.36 1015.02 1014.63 1014.21
1012.41 1012.52 1012.58 1012.58 1012.51 1012.36 1012.16 1011.93 1011.71 1011.52 1011.39 1011.35 1011.40 1011.51 1011.67 1011.87 1012.07 1012.27 1012.48 1012.70 1012.94 1013.23 1013.56 1013.93 1014.33 1014.72 1015.09 1015.41 1015.66 1015.84 1015.96 1016.02 1016.05 1016.07 1016.10 1016.14 1016.19 1016.26 1016.32 1016.36 1016.37 1016.34 1016.26 1016.12 1015.90 1015.63 1015.29 1014.90 1014.46
1012.45 1012.59 1012.69 1012.72 1012.67 1012.53 1012.31 1012.03 1011.75 1011.51 1011.35 1011.29 1011.36 1011.52 1011.76 1012.03 1012.30 1012.54 1012.76 1012.95 1013.13 1013.34 1013.60 1013.90 1014.26 1014.64 1015.03 1015.38 1015.66 1015.86 1015.96 1015.99 1015.96 1015.91 1015.86 1015.84 1015.86 1015.93 1016.02 1016.14 1016.24 1016.31 1016.31 1016.24 1016.09 1015.85 1015.53 1015.16 1014.73
1012.43 1012.63 1012.79 1012.87 1012.85 1012.71 1012.45 1012.11 1011.75 1011.44 1011.22 1011.15 1011.22 1011.44 1011.75 1012.11 1012.46 1012.77 1013.01 1013.19 1013.33 1013.47 1013.65 1013.88 1014.19 1014.55 1014.93 1015.30 1015.60 1015.81 1015.92 1015.92 1015.84 1015.72 1015.61 1015.53 1015.51 1015.57 1015.69 1015.86 1016.02 1016.17 1016.25 1016.25 1016.16 1015.98 1015.71 1015.38 1014.99
1012.40 1012.68 1012.92 1013.07 1013.08 1012.93 1012.62 1012.21 1011.75 1011.33 1011.04 1010.91 1010.99 1011.24 1011.62 1012.08 1012.52 1012.90 1013.18 1013.37 1013.48 1013.57 1013.67 1013.84 1014.10 1014.42 1014.79 1015.16 1015.48 1015.70 1015.81 1015.80 1015.69 1015.53 1015.36 1015.23 1015.18 1015.21 1015.33 1015.51 1015.71 1015.89 1016.03 1016.09 1016.07 1015.96 1015.77 1015.52 1015.21
1012.39 1012.77 1013.12 1013.35 1013.39 1013.23 1012.86 1012.35 1011.77 1011.23 1010.83 1010.63 1010.68 1010.95 1011.38 1011.91 1012.45 1012.91 1013.25 1013.46 1013.56 1013.61 1013.67 1013.77 1013.97 1014.25 1014.60 1014.96 1015.28 1015.52 1015.64 1015.63 1015.51 1015.32 1015.12 1014.95 1014.85 1014.84 1014.92 1015.08 1015.27 1015.47 1015.63 1015.74 1015.78 1015.76 1015.67 1015.52 1015.33
1012.43 1012.94 1013.40 1013.71 1013.79 1013.62 1013.18 1012.56 1011.85 1011.17 1010.64 1010.35 1010.34 1010.60 1011.07 1011.66 1012.27 1012.81 1013.21 1013.46 1013.57 1013.61 1013.62 1013.67 1013.81 1014.04 1014.35 1014.70 1015.02 1015.27 1015.40 1015.40 1015.29 1015.09 1014.87 1014.66 1014.51 1014.44 1014.47 1014.57 1014.72 1014.90 1015.06 1015.20 1015.29 1015.35 1015.38 1015.36 1015.29
1012.55 1013.19 1013.76 1014.15 1014.27 1014.07 1013.57 1012.84 1011.99 1011.17 1010.51 1010.12 1010.04 1010.27 1010.74 1011.38 1012.05 1012.65 1013.11 1013.40 1013.53 1013.55 1013.54 1013.54 1013.63 1013.81 1014.08 1014.40 1014.71 1014.96 1015.11 1015.13 1015.02 1014.83 1014.58 1014.34 1014.14 1014.00 1013.95 1013.98 1014.06 1014.18 1014.33 1014.47 1014.62 1014.76 1014.89 1015.00 1015.07
1012.75 1013.51 1014.18 1014.63 1014.76 1014.54 1013.97 1013.14 1012.17 1011.23 1010.45 1009.95 1009.80 1009.99 1010.45 1011.10 1011.81 1012.46 1012.97 1013.29 1013.45 1013.47 1013.43 1013.40 1013.43 1013.57 1013.79 1014.08 1014.37 1014.61 1014.77 1014.80 1014.70 1014.51 1014.25 1013.97 1013.71 1013.50 1013.37 1013.30 1013.31 1013.37 1013.47 1013.62 1013.80 1014.00 1014.23 1014.46 1014.65
1013.00 1013.86 1014.59 1015.08 1015.22 1014.96 1014.33 1013.42 1012.36 1011.31 1010.44 1009.86 1009.65 1009.79 1010.23 1010.88 1011.60 1012.27 1012.80 1013.15 1013.32 1013.35 1013.30 1013.24 1013.24 1013.33 1013.51 1013.75 1014.01 1014.24 1014.39 1014.42 1014.32 1014.12 1013.84 1013.53 1013.21 1012.93 1012.71 1012.57 1012.49 1012.49 1012.56 1012.70 1012.90 1013.16 1013.46 1013.77 1014.06
1013.27 1014.19 1014.95 1015.44 1015.56 1015.26 1014.58 1013.61 1012.49 1011.38 1010.45 1009.82 1009.56 1009.66 1010.08 1010.70 1011.41 1012.08 1012.62 1012.98 1013.16 1013.19 1013.14 1013.07 1013.04 1013.09 1013.23 1013.44 1013.66 1013.86 1013.98 1013.99 1013.88 1013.66 1013.35 1013.00 1012.63 1012.29 1012.00 1011.79 1011.66 1011.62 1011.66 1011.79 1012.01 1012.29 1012.63 1013.00 1013.34
1013.53 1014.45 1015.20 1015.65 1015.71 1015.37 1014.64 1013.64 1012.49 1011.37 1010.43 1009.78 1009.50 1009.58 1009.96 1010.55 1011.23 1011.87 1012.40 1012.76 1012.95 1012.99 1012.94 1012.87 1012.83 1012.86 1012.97 1013.14 1013.32 1013.47 1013.55 1013.53 1013.38 1013.12 1012.78 1012.39 1011.98 1011.59 1011.26 1011.01 1010.85 1010.79 1010.82 1010.96 1011.18 1011.48 1011.84 1012.22 1012.57
1013.72 1014.60 1015.28 1015.65 1015.64 1015.23 1014.47 1013.45 1012.32 1011.23 1010.32 1009.70 1009.42 1009.49 1009.84 1010.39 1011.03 1011.64 1012.14 1012.48 1012.67 1012.72 1012.69 1012.64 1012.61 1012.63 1012.72 1012.85 1012.99 1013.09 1013.12 1013.04 1012.84 1012.53 1012.15 1011.72 1011.28 1010.87 1010.52 1010.26 1010.10 1010.05 1010.10 1010.25 1010.49 1010.79 1011.14 1011.49 1011.82
1013.80 1014.59 1015.15 1015.40 1015.29 1014.82 1014.03 1013.03 1011.95 1010.92 1010.09 1009.53 1009.29 1009.36 1009.69 1010.20 1010.79 1011.35 1011.81 1012.14 1012.33 1012.40 1012.40 1012.37 1012.37 1012.40 1012.48 1012.58 1012.68 1012.72 1012.68 1012.53 1012.27 1011.91 1011.48 1011.02 1010.57 1010.16 1009.82 1009.59 1009.46 1009.44 1009.53 1009.70 1009.94 1010.24 1010.56 1010.87 1011.14
1013.72 1014.37 1014.79 1014.90 1014.68 1014.15 1013.35 1012.39 1011.39 1010.46 1009.73 1009.25 1009.07 1009.17 1009.50 1009.97 1010.50 1011.01 1011.44 1011.75 1011.94 1012.04 1012.07 1012.09 1012.11 1012.17 1012.24 1012.32 1012.37 1012.35 1012.24 1012.03 1011.70 1011.29 1010.83 1010.35 1009.89 1009.50 1009.20 1009.01 1008.94 1008.97 1009.09 1009.30 1009.55 1009.82 1010.10 1010.35 1010.55
Thickness
5718 5720 5720 5713 5697 5683 5688 5703 5717 5725 5728 5736 5737 5733 5726 5721 5721 5716 5728 5737 5738 5739 5740 5741 5742 5743 5743 5744 5745 5745 5746 5746 5747 5747 5747 5748 5748 5748 5748 5747 5747 5747 5747 5746 5745 5745 5744 5744 5743
5714 5715 5710 5698 5683 5675 5687 5703 5713 5722 5730 5734 5732 5729 5721 5717 5722 5724 5727 5732 5735 5735 5736 5736 5737 5738 5739 5739 5740 5741 5741 5742 5743 5743 5743 5744 5744 5744 5744 5744 5744 5744 5743 5743 5742 5741 5741 5740 5739
5710 5709 5697 5685 5679 5679 5693 5708 5713 5723 5729 5730 5723 5722 5717 5714 5719 5721 5726 5729 5730 5730 5731 5731 5732 5732 5733 5734 5735 5736 5736 5737 5738 5738 5739 5739 5740 5740 5740 5740 5740 5740 5740 5739 5738 5738 5737 5736 5736
5702 5695 5687 5677 5680 5689 5699 5707 5713 5719 5724 5724 5718 5710 5711 5716 5718 5720 5723 5725 5724 5724 5725 5726 5727 5727 5728 5729 5729 5730 5731 5732 5733 5734 5734 5735 5735 5736 5736 5736 5736 5736 5736 5735 5735 5734 5733 5733 5732
5694 5683 5675 5671 5679 5690 5700 5707 5711 5712 5713 5714 5711 5702 5702 5710 5715 5716 5718 5719 5719 5718 5720 5720 5721 5721 5722 5723 5724 5725 5726 5726 5727 5728 5729 5730 5731 5731 5731 5732 5732 5732 5731 5731 5730 5730 5730 5729 5729
5680 5673 5664 5664 5676 5689 5697 5703 5706 5705 5706 5707 5703 5696 5696 5704 5708 5709 5711 5712 5714 5713 5714 5714 5715 5715 5716 5717 5718 5719 5720 5720 5721 5722 5723 5724 5725 5726 5726 5726 5727 5727 5727 5726 5726 5726 5726 5726 5725
5671 5665 5663 5670 5675 5682 5692 5699 5696 5696 5698 5699 5700 5690 5691 5697 5702 5704 5705 5705 5707 5707 5707 5707 5708 5708 5709 5710 5711 5712 5713 5713 5714 5715 5716 5717 5718 5719 5720 5720 5721 5721 5722 5721 5721 5721 5721 5721 5721
5671 5663 5665 5667 5672 5678 5688 5692 5692 5692 5692 5698 5697 5686 5685 5692 5697 5698 5698 5697 5698 5699 5699 5700 5700 5701 5702 5703 5703 5704 5705 5706 5707 5707 5708 5709 5710 5711 5712 5713 5714 5714 5715 5715 5716 5716 5716 5716 5716
5671 5655 5655 5665 5670 5674 5682 5683 5685 5689 5688 5690 5692 5690 5691 5692 5691 5690 5688 5688 5689 5690 5691 5692 5692 5693 5694 5695 5696 5696 5697 5697 5698 5699 5700 5701 5702 5703 5704 5705 5706 5707 5707 5708 5709 5709 5710 5710 5710
5658 5647 5657 5668 5670 5670 5673 5675 5677 5678 5678 5679 5681 5684 5686 5685 5683 5681 5680 5679 5680 5681 5682 5684 5685 5685 5686 5687 5687 5688 5688 5689 5690 5691 5692 5692 5693 5694 5695 5696 5697 5698 5699 5700 5701 5701 5702 5702 5702
5656 5651 5659 5664 5666 5667 5667 5668 5672 5670 5668 5673 5674 5675 5677 5677 5676 5675 5673 5673 5674 5674 5675 5676 5677 5678 5678 5678 5679 5679 5680 5680 5681 5682 5683 5683 5684 5685 5686 5687 5688 5689 5690 5691 5691 5692 5693 5693 5694
5653 5655 5658 5659 5662 5661 5661 5662 5662 5665 5668 5673 5673 5673 5672 5670 5670 5670 5668 5668 5668 5668 5668 5669 5670 5670 5670 5670 5670 5670 5670 5671 5671 5672 5673 5674 5674 5675 5676 5677 5678 5679 5679 5680 5681 5682 5683 5684 5685
5648 5651 5654 5655 5655 5656 5657 5656 5656 5660 5666 5667 5667 5667 5666 5665 5665 5665 5665 5664 5663 5662 5661 5661 5662 5662 5662 5661 5661 5661 5661 5662 5662 5663 5663 5664 5664 5665 5666 5667 5668 5669 5669 5670 5671 5672 5673 5674 5676
5645 5645 5646 5648 5649 5652 5650 5651 5651 5659 5662 5661 5660 5659 5659 5660 5661 5659 5658 5658 5657 5656 5655 5655 5654 5654 5654 5653 5652 5652 5652 5653 5653 5653 5654 5654 5654 5655 5655 5656 5657 5658 5659 5660 5660 5661 5662 5664 5665
5642 5638 5639 5643 5644 5646 5645 5643 5648 5657 5658 5656 5655 5654 5655 5655 5656 5655 5654 5653 5652 5651 5649 5648 5647 5646 5645 5644 5644 5644 5643 5643 5643 5644 5644 5644 5645 5645 5645 5645 5646 5647 5648 5649 5649 5650 5651 5653 5654
5632 5627 5626 5638 5640 5640 5636 5637 5652 5655 5652 5650 5649 5648 5649 5650 5650 5650 5650 5648 5647 5645 5643 5641 5641 5638 5637 5636 5635 5635 5634 5634 5634 5634 5634 5634 5635 5635 5634 5634 5635 5636 5637 5637 5637 5637 5638 5640 5641
5617 5614 5621 5631 5635 5633 5631 5633 5647 5650 5648 5646 5644 5642 5643 5643 5644 5644 5644 5642 5641 5638 5636 5633 5632 5630 5628 5627 5626 5625 5625 5624 5624 5624 5624 5624 5624 5624 5624 5624 5624 5624 5625 5624 5624 5625 5624 5626 5628
5610 5610 5618 5622 5629 5626 5624 5629 5639 5642 5643 5641 5639 5637 5637 5638 5639 5639 5637 5636 5634 5631 5628 5626 5623 5621 5620 5618 5616 5615 5615 5614 5614 5614 5614 5614 5613 5613 5613 5613 5612 5612 5612 5611 5611 5611 5611 5611 5614
5615 5613 5614 5618 5624 5621 5619 5625 5634 5637 5636 5634 5632 5631 5632 5633 5634 5633 5630 5628 5625 5622 5619 5617 5614 5612 5610 5608 5607 5605 5604 5604 5604 5605 5604 5604 5603 5602 5602 5601 5601 5600 5599 5599 5598 5597 5597 5597 5598
5607 5606 5606 5611 5616 5615 5614 5619 5629 5633 5635 5635 5633 5630 5628 5627 5625 5624 5622 5619 5616 5613 5611 5608 5606 5604 5603 5601 5599 5597 5596 5595 5595 5595 5595 5594 5593 5592 5591 5590 5589 5588 5587 5586 5585 5583 5582 5583 5582
5599 5598 5600 5602 5603 5605 5605 5610 5622 5631 5634 5635 5632 5628 5625 5624 5621 5617 5613 5610 5607 5604 5602 5602 5598 5597 5595 5593 5590 5588 5586 5585 5584 5584 5584 5584 5582 5581 5580 5579 5578 5576 5574 5573 5571 5570 5569 5568 5568
5591 5598 5597 5594 5586 5579 5588 5583 5609 5619 5624 5627 5624 5618 5617 5617 5614 5611 5607 5602 5598 5596 5594 5592 5590 5588 5586 5584 5581 5578 5575 5574 5574 5573 5573 5573 5571 5570 5569 5567 5565 5564 5562 5560 5558 5557 5556 5554 5553
5587 5590 5587 5582 5573 5565 5570 5569 5593 5605 5611 5616 5614 5611 5608 5607 5605 5603 5599 5595 5591 5587 5583 5581 5580 5578 5576 5573 5571 5568 5566 5564 5564 5562 5562 5561 5560 5558 5557 5554 5552 5551 5549 5547 5545 5543 5542 5540 5539
5580 5573 5564 5549 5545 5549 5563 5558 5579 5591 5605 5611 5608 5604 5600 5598 5596 5593 5590 5586 5581 5577 5573 5571 5569 5567 5565 5563 5561 5558 5556 5554 5552 5551 5549 5549 5548 5546 5545 5543 5540 5538 5536 5534 5532 5530 5529 5527 5526
5567 5552 5539 5538 5526 5541 5558 5557 5576 5596 5603 5605 5603 5597 5591 5588 5584 5581 5579 5575 5572 5567 5564 5561 5558 5557 5555 5553 5551 5548 5546 5543 5541 5540 5538 5537 5536 5534 5533 5531 5528 5526 5523 5521 5519 5517 5516 5514 5513
5554 5551 5539 5537 5531 5539 5549 5550 5577 5592 5596 5597 5595 5589 5582 5578 5574 5572 5569 5565 5562 5559 5555 5551 5549 5547 5545 5542 5540 5538 5535 5533 5531 5529 5527 5525 5523 5522 5521 5518 5516 5514 5511 5509 5506 5505 5504 5502 5501
5541 5536 5539 5522 5516 5521 5532 5547 5568 5585 5586 5584 5580 5575 5571 5568 5565 5562 5559 5555 5552 5549 5546 5543 5540 5537 5535 5532 5529 5527 5525 5522 5520 5518 5515 5513 5511 5510 5508 5505 5503 5501 5499 5496 5494 5493 5492 5491 5490
5540 5532 5515 5508 5507 5515 5528 5537 5553 5571 5573 5572 5566 5563 5560 5557 5553 5551 5548 5546 5543 5540 5537 5533 5530 5527 5524 5521 5518 5517 5514 5511 5509 5506 5503 5501 5500 5497 5494 5492 5491 5489 5487 5485 5483 5482 5481 5481 5481
5524 5522 5515 5498 5494 5500 5508 5536 5558 5561 5563 5559 5556 5553 5549 5546 5543 5540 5537 5535 5532 5529 5525 5521 5518 5515 5512 5510 5508 5505 5502 5500 5497 5495 5493 5490 5487 5484 5482 5480 5479 5478 5477 5475 5473 5472 5472 5472 5473
5518 5515 5504 5497 5487 5482 5489 5525 5557 5552 5551 5549 5545 5542 5539 5537 5533 5530 5526 5523 5519 5516 5513 5509 5506 5503 5501 5498 5495 5492 5490 5487 5485 5483 5481 5478 5475 5473 5470 5469 5468 5468 5466 5465 5463 5463 5463 5464 5465